Regional Weather Roundup
Issued by NWS

Home | Current Version | Previous Version | Graphics & Text | Print | Product List | Glossary On
Versions: 1 2 3 4 5 6 7 8 9 10 11 12 13 14 15 16 17 18 19 20 21 22 23 24 25 26 27 28 29 30 31 32 33 34 35 36 37 38 39 40 41 42 43 44 45 46 47 48 49 50
000
ASUS43 KTOP 231559
RWRKS

WEATHER ROUNDUP FOR KANSAS
NATIONAL WEATHER SERVICE GOODLAND KS
1100 AM CDT TUE SEP 23 2014

NOTE:  "FAIR" INDICATES FEW OR NO CLOUDS BELOW 12,000 FEET WITH NO
SIGNIFICANT WEATHER AND/OR OBSTRUCTIONS TO VISIBILITY.

KSZ001>006-013>018-027>032-041>047-231700-
NORTHWEST KANSAS

CITY           SKY/WX    TMP DP  RH WIND       PRES   REMARKS
GOODLAND       MOSUNNY   68  61  78 SW9       30.08S
HILL CITY      CLOUDY    65  54  67 S14       30.06F
RUSSELL        CLOUDY    60  54  80 S14G23    30.08S
$$

KSZ061>065-074>080-084>089-231700-
SOUTHWEST KANSAS

CITY           SKY/WX    TMP DP  RH WIND       PRES   REMARKS
DODGE CITY     SUNNY     74  48  39 S29G37    30.08F
ELKHART          N/A     75  57  53 SW18        N/A
GARDEN CITY    MOSUNNY   75  59  57 S23G32    30.06F
GREAT BEND     CLOUDY    61  52  72 SE6       30.11F THUNDER
LIBERAL        SUNNY     77  57  50 SW28G33   30.10F
PRATT          CLOUDY    64  48  55 S18G24    30.14F
$$

KSZ066>073-081>083-090>101-231700-
SOUTHEAST KANSAS

CITY           SKY/WX    TMP DP  RH WIND       PRES   REMARKS
CHANUTE        MOSUNNY   69  55  60 S14       30.26S
COFFEYVILLE    MOSUNNY   70  56  61 S9        30.25F
HUTCHINSON     PTSUNNY   72  52  49 S18G24    30.16F
NEWTON         PTSUNNY   70  52  52 S17       30.19F
PARSONS        MOSUNNY   70  55  59 S9G17     30.27S
WICHITA INTL   PTSUNNY   73  51  46 S23       30.17F
WICHITA JABRA  MOSUNNY   71  52  50 S17G26    30.18F
WINFIELD       LGT RAIN  72  54  53 S21       30.21F
$$

KSZ007>012-019>026-033>040-048>060-102>105-231700-
NORTHEAST KANSAS

CITY           SKY/WX    TMP DP  RH WIND       PRES   REMARKS
CONCORDIA      TSTM      58  57  97 S13       30.14R FOG
EMPORIA        PTSUNNY   66  56  70 S17       30.21F
LAWRENCE       PTSUNNY   67  54  63 S13       30.23F
MANHATTAN      CLOUDY    65  57  75 S12       30.17R
OLATHE IND     PTSUNNY   67  54  63 S15       30.25F
OLATHE EXE     PTSUNNY   69  55  60 S13       30.24F
SALINA         CLOUDY    64  57  78 S15       30.14F
TOPEKA BILLARD PTSUNNY   67  56  67 SE7       30.21F
TOPEKA FORBES  PTSUNNY   66  55  67 SE14G23   30.20F
$$


USA.gov is the U.S. government's official web portal to all federal, state and local government web resources and services.